Theta_e
329 329 329 328 329 331 330 329 328 329 328 327 328 330 333 338 341 344 344 343 341 345 346 345 346 348 346 343 341 341 339 340 337 327 328 330 329 326 325 326 317 318 313
327 327 327 328 328 330 329 328 328 327 326 325 324 325 326 330 337 338 337 341 340 340 342 343 342 345 344 347 338 337 340 341 333 325 325 325 325 328 326 324 320 319 317
325 325 326 327 328 329 329 328 327 326 325 324 323 322 322 325 329 334 336 336 341 340 341 341 342 343 344 342 340 337 338 333 332 325 322 325 325 324 324 324 322 321 318
323 323 324 326 327 327 328 328 328 326 325 325 324 323 322 322 324 328 332 334 336 339 340 342 341 341 342 343 339 338 336 330 332 325 321 322 322 325 324 320 318 318 316
321 322 324 326 326 326 327 326 327 327 325 325 323 323 323 322 321 326 330 332 336 337 341 339 343 339 333 339 337 335 329 326 328 324 321 319 318 319 319 320 318 317 318
319 320 322 323 323 323 324 324 326 325 325 325 323 322 322 321 311 310 321 333 334 337 339 340 342 334 331 319 320 322 325 328 325 324 324 319 322 321 321 319 317 314 312
317 317 318 319 319 320 321 322 323 325 326 324 324 323 322 323 309 308 311 329 333 337 339 339 339 340 330 330 316 317 318 316 321 328 326 324 323 325 325 321 319 316 314
314 315 315 316 317 318 319 322 325 326 325 323 322 323 322 321 308 307 308 329 333 335 338 339 340 338 330 328 323 323 322 320 323 326 332 330 330 330 327 322 320 320 317
313 314 314 315 315 317 318 321 325 323 322 322 321 321 321 321 308 306 311 327 329 333 334 339 339 334 315 308 319 322 319 314 307 309 311 308 307 308 316 318 316 312 309
312 313 315 316 316 316 319 321 322 322 320 319 319 321 316 321 309 304 309 325 330 332 334 335 314 327 304 304 318 316 311 311 317 318 316 310 314 312 308 324 316 310 308
312 312 314 316 318 316 315 317 318 318 318 319 317 321 322 321 321 305 304 323 328 328 326 322 320 305 301 303 309 317 311 311 312 317 316 316 317 316 316 318 318 312 308
310 310 311 314 314 313 316 314 315 316 316 317 317 317 319 324 312 310 304 303 318 327 323 321 317 300 300 302 308 301 302 308 314 314 314 312 311 311 313 314 315 313 312
304 305 306 308 307 309 311 311 310 313 312 311 312 313 315 317 320 306 304 300 302 323 324 316 305 300 302 302 301 301 304 314 312 314 313 311 311 311 312 310 310 311 310
301 302 302 303 304 305 308 309 308 308 309 310 311 312 314 315 319 324 323 311 302 313 308 308 304 304 305 306 303 306 313 313 313 315 312 312 310 308 306 305 303 303 304
297 298 298 298 299 301 302 307 308 311 308 308 310 313 313 314 319 315 315 321 317 312 306 304 303 306 303 303 306 310 313 312 315 315 311 310 307 305 303 304 303 303 302
294 296 296 297 298 300 301 304 301 299 298 297 298 304 314 305 300 301 300 300 299 297 308 304 304 302 302 304 307 310 312 311 312 310 311 308 305 303 303 303 303 302 300
294 295 296 297 298 298 300 301 300 303 297 297 297 297 296 301 297 298 298 297 294 298 309 305 307 307 305 305 308 307 306 310 310 311 309 307 305 305 303 302 302 301 300
296 295 297 298 299 299 300 301 302 302 302 306 300 298 296 294 295 296 294 295 296 302 308 306 306 307 306 307 306 306 307 308 309 309 308 308 306 304 303 302 302 302 301
298 299 300 300 300 299 301 302 303 304 305 307 309 299 296 294 294 293 295 305 301 305 307 307 306 306 306 308 308 307 308 309 310 311 309 307 306 305 304 304 302 295 297
296 295 297 302 302 302 301 302 304 306 308 307 311 306 297 297 297 296 304 304 304 308 306 305 306 306 307 307 306 308 308 309 311 310 310 309 307 307 305 304 303 301 302
297 298 294 299 301 303 304 305 306 308 313 309 305 301 294 303 301 301 304 306 307 306 305 305 306 307 307 308 309 308 309 310 311 310 310 309 308 306 307 306 304 303 304
301 301 301 303 305 306 308 312 316 315 309 303 302 299 291 303 301 303 306 306 306 306 306 306 306 306 308 309 310 308 310 310 311 310 309 310 309 308 308 307 306 304 303
302 307 305 307 310 304 312 314 316 311 304 303 301 300 302 302 304 306 305 305 306 306 305 305 305 306 308 311 313 310 310 311 313 311 310 309 309 308 308 307 306 305 303
308 312 312 313 311 313 314 314 309 299 303 301 302 303 304 305 304 304 304 304 305 305 305 305 305 306 307 311 311 311 313 314 314 313 311 309 308 305 307 306 305 304 302
311 313 313 312 309 308 307 305 303 303 302 302 304 306 305 303 303 303 303 303 304 304 304 304 304 306 310 311 311 311 300 293 310 303 311 309 308 308 306 304 304 303 302
306 308 309 309 309 308 306 304 304 303 303 305 305 304 303 302 302 302 302 303 303 304 304 304 303 304 304 306 308 298 291 291 298 296 310 309 308 307 306 304 304 303 302
Wind_Speed
14 13 11 10 8 7 7 7 6 5 6 8 9 11 12 13 13 13 14 16 16 15 16 15 15 15 10 10 9 5 7 8 7 7 6 11 12 11 13 10 13 10 9
14 14 12 10 9 10 9 9 7 7 7 8 9 11 13 14 14 14 14 16 17 17 17 17 14 12 13 11 11 11 10 5 6 11 7 10 13 11 13 12 10 8 9
13 13 12 10 11 11 10 9 9 9 9 10 9 10 12 15 16 16 16 16 18 18 18 17 17 14 15 13 12 11 9 6 8 9 7 10 11 10 12 10 9 7 5
10 12 12 12 12 11 11 11 11 12 11 11 11 12 13 14 16 18 18 18 18 18 18 18 18 16 17 16 12 11 12 9 10 10 9 11 11 12 11 11 10 8 8
10 12 13 13 13 13 13 13 13 14 13 13 13 13 13 14 12 17 18 19 18 18 18 19 18 18 19 17 11 14 12 10 9 9 9 11 12 13 13 10 9 8 8
11 12 14 14 15 15 15 15 15 16 15 15 15 15 14 12 12 12 15 17 18 18 17 18 17 16 13 13 16 18 19 16 14 13 11 14 13 13 12 11 9 10 9
15 15 16 17 17 17 17 17 17 16 16 17 16 16 16 17 14 15 16 17 18 17 18 16 14 12 12 13 13 16 16 14 13 14 14 14 13 14 13 13 11 10 6
19 18 18 18 19 18 18 17 16 15 16 16 17 17 16 15 13 15 16 18 18 20 18 18 16 16 12 13 14 15 14 13 12 11 11 12 12 13 13 11 12 9 9
21 21 20 20 20 19 19 18 15 15 16 16 16 17 17 17 13 14 13 18 18 20 17 19 17 14 16 17 15 18 14 9 8 10 12 12 14 13 12 12 12 11 9
21 21 21 20 20 20 17 16 12 14 16 15 18 18 19 19 15 13 14 15 16 14 12 14 13 16 19 21 18 18 17 13 14 14 13 13 14 11 9 10 11 10 10
20 18 20 20 17 15 14 13 12 15 17 17 19 17 19 18 18 16 19 18 13 12 9 8 8 14 22 23 18 18 17 17 16 15 15 13 13 13 10 8 9 7 9
21 20 20 18 15 15 17 16 18 18 18 18 19 18 16 16 19 19 19 20 18 12 10 9 10 21 21 15 14 11 26 19 12 12 13 13 13 12 10 9 6 6 5
22 21 20 20 14 14 16 19 15 17 17 17 17 16 15 14 15 17 17 18 17 12 9 12 17 23 27 19 23 24 23 13 14 13 14 13 12 12 14 12 11 12 12
19 19 17 19 17 17 14 14 13 13 13 15 15 15 14 13 13 13 9 7 9 12 10 9 15 20 19 12 18 21 13 13 14 14 14 12 14 13 12 12 12 11 11
17 17 17 14 15 14 15 14 13 14 14 13 12 14 14 14 13 13 11 8 9 9 12 10 9 10 12 11 13 13 12 12 13 12 13 14 14 13 13 12 11 11 12
16 14 12 12 12 12 12 13 18 19 16 16 17 17 14 11 11 15 13 11 14 22 9 12 13 13 10 15 14 12 12 14 12 13 13 15 15 14 14 13 11 11 12
16 15 12 13 11 11 11 11 12 12 19 23 25 25 22 22 7 16 19 18 21 18 9 12 13 14 16 12 13 13 14 13 15 13 15 14 15 14 14 13 12 12 12
17 23 13 11 11 11 11 11 10 10 11 10 19 22 22 23 19 20 17 16 10 14 12 14 15 15 16 13 13 12 13 13 14 14 15 14 14 15 14 13 13 13 13
13 11 12 11 11 12 10 10 10 11 11 10 6 5 12 15 21 23 28 12 13 12 11 13 15 16 16 15 15 14 16 14 14 14 15 15 15 14 14 14 13 12 12
12 20 14 10 9 10 10 10 10 10 10 11 6 5 5 6 8 9 12 11 13 11 12 12 14 15 16 16 16 15 15 15 15 14 15 14 14 14 14 14 14 14 12
9 10 12 11 11 10 9 10 10 9 10 4 4 5 8 9 11 12 11 10 10 12 14 14 13 15 14 15 15 15 16 15 15 15 15 15 15 14 14 13 14 13 12
8 9 8 9 9 9 9 10 11 8 5 5 4 4 6 4 7 10 8 9 10 11 12 14 14 13 15 14 16 16 16 17 15 15 16 15 15 14 14 14 14 13 12
8 7 8 8 8 9 10 7 5 6 6 6 6 7 6 6 6 6 10 10 11 12 11 11 13 13 11 13 14 15 16 16 14 15 16 16 15 14 14 14 14 13 13
7 5 7 5 5 7 5 5 5 7 7 7 8 8 7 6 8 9 10 10 11 12 12 11 11 14 14 13 13 13 13 14 14 16 19 16 15 14 14 14 13 14 13
4 2 3 3 4 4 5 6 7 6 6 6 7 7 8 8 9 10 10 11 12 13 14 12 11 13 19 20 18 21 14 13 17 14 14 17 18 19 15 13 14 14 15
8 7 4 3 4 4 5 5 6 6 7 7 7 8 9 9 9 10 10 12 11 11 14 11 13 16 17 12 15 18 13 11 12 13 14 15 16 14 14 15 19 13 15
Wind_Direction
214 209 206 207 205 206 219 230 241 248 263 272 278 282 279 275 267 259 251 249 240 238 242 244 235 223 224 218 211 190 210 222 209 153 179 159 170 182 158 150 154 158 140
221 218 208 209 214 214 225 236 238 246 255 265 275 278 279 275 271 264 254 257 250 243 240 238 230 231 224 219 201 205 207 185 163 164 151 166 179 183 167 160 176 168 153
214 215 217 218 224 229 237 244 249 249 250 261 271 279 280 277 271 266 263 250 250 250 249 246 241 220 216 213 212 196 196 179 166 152 156 179 172 178 169 174 178 159 176
219 225 228 224 233 242 248 251 251 254 254 259 264 274 280 276 271 266 262 261 251 252 244 249 245 231 221 214 197 189 185 169 166 146 161 173 169 178 173 168 180 178 180
240 238 238 240 248 253 257 260 259 258 253 255 261 266 274 275 267 263 261 257 258 250 247 243 247 239 224 217 195 179 166 163 160 155 181 166 176 178 184 172 180 177 179
263 258 255 257 258 260 261 259 256 256 251 249 255 263 269 270 273 267 265 265 268 257 248 246 245 229 223 184 202 178 173 171 169 179 186 187 173 183 179 173 174 175 168
267 262 262 261 260 259 259 257 254 251 252 248 250 257 263 267 257 256 256 263 263 253 247 246 244 233 210 199 196 191 186 165 173 178 188 180 167 183 168 175 170 179 177
276 270 266 263 262 262 260 258 254 251 245 248 253 255 262 264 247 249 249 259 262 256 245 243 230 214 197 190 185 180 176 164 174 188 177 169 164 172 161 173 156 154 115
270 267 267 266 264 261 260 258 253 247 246 249 255 261 263 265 248 242 246 259 257 252 248 240 225 200 181 175 172 176 160 137 75 90 113 115 124 137 157 151 158 168 157
270 267 264 262 259 259 263 259 251 249 251 256 260 260 262 264 254 243 240 256 255 249 237 225 199 196 169 177 178 170 150 149 141 122 112 108 130 128 138 168 168 175 157
279 278 280 269 262 254 252 257 258 257 259 260 264 264 261 257 257 235 229 242 245 245 213 199 192 172 171 179 185 172 150 144 136 139 140 143 148 148 158 171 181 170 161
284 277 273 272 263 256 247 251 251 253 253 255 256 256 254 247 241 242 232 223 241 228 203 189 180 166 163 168 158 129 131 131 146 155 147 153 155 155 138 138 126 83 59
272 269 266 272 275 271 258 256 257 254 254 255 252 246 243 244 245 222 225 213 215 222 195 182 165 172 169 167 143 144 145 147 159 155 154 157 152 135 125 127 115 110 102
267 266 271 269 265 263 265 250 241 243 246 253 247 248 251 250 246 249 214 204 214 205 136 144 167 171 169 150 136 149 153 167 157 155 153 146 128 144 150 142 141 136 125
268 262 258 256 256 253 257 246 242 244 244 251 246 246 253 251 243 224 209 193 183 160 124 121 140 156 142 144 154 163 157 162 154 153 145 140 151 154 147 148 145 143 133
262 258 252 251 249 247 247 250 243 246 249 237 247 255 261 298 330 194 188 165 145 145 141 153 155 149 160 154 161 154 163 152 148 145 148 154 156 151 148 150 151 146 144
253 253 249 243 242 243 242 242 249 241 229 236 238 238 235 250 262 221 180 173 156 152 171 165 165 166 151 172 157 158 150 153 148 151 158 154 152 148 154 155 153 149 146
246 245 244 240 238 237 237 239 238 241 246 236 230 231 228 235 229 205 172 140 161 183 181 172 169 165 146 170 145 149 154 152 152 159 151 152 150 152 157 158 153 154 153
262 248 238 233 233 235 238 235 235 236 241 241 236 197 217 222 209 177 165 172 171 178 174 175 163 160 149 154 152 162 151 159 155 152 150 153 151 157 159 158 152 155 152
258 252 248 250 230 226 228 233 234 233 233 238 211 189 144 135 157 166 179 171 171 174 161 157 161 149 144 158 154 148 158 155 153 154 151 152 157 158 159 158 155 154 169
252 247 227 228 230 235 227 228 225 230 241 198 195 178 184 175 161 171 174 169 170 157 155 155 151 149 151 154 148 152 154 152 156 152 155 155 159 160 160 157 158 163 168
263 236 228 223 219 219 226 223 220 204 153 152 152 130 126 137 159 167 161 146 148 148 149 152 148 154 150 157 154 148 158 156 155 155 157 157 162 160 161 162 161 167 161
254 236 214 216 218 208 220 233 210 138 138 139 146 147 161 144 163 150 131 129 134 136 137 139 146 145 157 157 150 153 154 159 152 155 159 158 163 163 162 163 165 164 164
255 229 221 205 201 218 203 162 109 125 142 147 150 151 152 154 129 127 126 128 127 124 131 135 136 152 143 150 148 150 152 149 154 158 158 160 161 157 162 161 163 162 164
310 216 147 157 124 118 109 104 113 128 133 136 143 136 124 119 120 123 125 126 126 127 127 130 130 135 150 149 153 154 129 134 155 147 155 160 153 165 158 161 161 163 168
19 37 58 75 100 112 111 107 115 125 132 142 137 127 126 123 124 126 129 132 131 133 133 133 141 138 137 138 138 135 138 137 136 161 155 159 157 165 163 165 166 161 167